MCBH Kaneohe Bay, HI

8:56 PM HST on February 20, 2017 (GMT -1000)
Kaneohe Bay Marine Corps Air Facility

Weather History for PHNG - March, 2013

Change the Weather History Date:

Sunday, March 31, 2013

  Actual Average Record
Temperature  
Mean Temperature 74 °F -  
Max Temperature 80 °F 75 °F 82 °F (1997)
Min Temperature 68 °F 68 °F 63 °F (1997)
Cooling Degree Days 9    
Growing Degree Days 24 (Base 50)    
Moisture  
Dew Point 53 °F    
Average Humidity 49    
Maximum Humidity 67    
Minimum Humidity 38    
Precipitation  
Precipitation 0.00 in - - ()
Sea Level Pressure  
Sea Level Pressure 30.02 in    
Wind  
Wind Speed 13 mph (NNW)    
Max Wind Speed 18 mph    
Max Gust Speed 25 mph    
Visibility 9 miles    
Events      
Averages and records for this station are not official NWS values.
T = Trace of Precipitation, MM = Missing Value Source: NWS Daily Summary

Daily Weather History Graph

Daily Weather History Graph

Search for Another Location

Airport or City:

Trip Planner

Search our weather history database for the weather conditions in past years. The results will help you decide how hot, cold, wet, or windy it might be!

Date:

Astronomy

Mar. 31, 2013 Rise Set
Actual Time 6:24 AM HST 6:45 PM HST
Civil Twilight 6:02 AM HST 7:08 PM HST
Nautical Twilight 5:36 AM HST 7:34 PM HST
Astronomical Twilight 5:09 AM HST 8:00 PM HST
Moon 11:34 PM HST (3/31) 9:54 AM HST (3/31)
Length of Visible Light 13h 05m
Length of Day
12h 21m
Waning Gibbous, 75% of the Moon is Illuminated
Mar 31
Waning Gibbous
Apr 2
Last Quarter
Apr 9
New
Apr 18
First Quarter
Apr 25
Full

Hourly Weather History & Observations

Time (HST) Temp. Heat Index Dew Point Humidity Pressure Visibility Wind Dir Wind Speed Gust Speed Precip Events Conditions
12:57 AM 70.3 °F - 59.0 °F 67% 30.03 in 7.0 mi North 13.8 mph - N/A   Mostly Cloudy
1:57 AM 70.3 °F - 55.0 °F 58% 30.03 in 7.0 mi North 12.7 mph - N/A   Overcast
2:57 AM 69.6 °F - 53.1 °F 56% 30.02 in 7.0 mi North 15.0 mph - N/A   Mostly Cloudy
3:57 AM 69.6 °F - 50.0 °F 50% 30.01 in 10.0 mi North 17.3 mph 20.7 mph N/A   Overcast
4:57 AM 68.9 °F - 52.0 °F 55% 30.03 in 7.0 mi North 13.8 mph - N/A   Overcast
5:57 AM 68.2 °F - 51.1 °F 54% 30.04 in 7.0 mi North 10.4 mph - N/A   Scattered Clouds
6:57 AM 70.5 °F - 48.9 °F 46% 30.05 in 10.0 mi NNW 11.5 mph - N/A   Mostly Cloudy
7:57 AM 69.8 °F - 50.0 °F 49% 30.06 in 10.0 mi NNW 12.7 mph 18.4 mph N/A   Overcast
8:57 AM 69.8 °F - 52.0 °F 53% 30.06 in 10.0 mi North 11.5 mph - N/A   Unknown
9:57 AM 73.4 °F - 52.0 °F 47% 30.07 in 10.0 mi North 11.5 mph 18.4 mph N/A   Scattered Clouds
10:57 AM 73.4 °F - 52.0 °F 47% 30.07 in 10.0 mi NNW 18.4 mph - N/A   Clear
11:57 AM 77.0 °F - 54.0 °F 45% 30.05 in 10.0 mi North 12.7 mph - N/A   Scattered Clouds
12:57 PM 77.0 °F - 53.1 °F 43% 30.03 in 10.0 mi North 16.1 mph 21.9 mph N/A   Scattered Clouds
1:57 PM 77.0 °F - 53.1 °F 43% 30.00 in 10.0 mi North 16.1 mph - N/A   Scattered Clouds
2:57 PM 77.0 °F - 54.0 °F 45% 29.98 in 10.0 mi North 17.3 mph - N/A   Clear
3:57 PM 80.6 °F 80.4 °F 55.0 °F 41% 29.97 in 10.0 mi North 15.0 mph 23.0 mph N/A   Partly Cloudy
4:57 PM 80.6 °F 80.4 °F 55.0 °F 41% 29.97 in 10.0 mi North 18.4 mph 25.3 mph N/A   Clear
5:57 PM 80.6 °F 80.2 °F 53.1 °F 38% 29.97 in 10.0 mi North 12.7 mph - N/A   Scattered Clouds
6:57 PM 78.8 °F - 53.1 °F 41% 29.99 in 10.0 mi NNW 13.8 mph - N/A   Scattered Clouds
7:57 PM 75.2 °F - 53.8 °F 47% 30.01 in 10.0 mi NW 10.4 mph - N/A   Mostly Cloudy
8:57 PM 75.2 °F - 52.0 °F 44% 30.01 in 10.0 mi NW 8.1 mph - N/A   Mostly Cloudy
9:57 PM 71.6 °F - 52.0 °F 50% 30.01 in 10.0 mi WSW 4.6 mph - N/A   Mostly Cloudy
10:57 PM 69.8 °F - 53.1 °F 55% 30.01 in 10.0 mi West 3.5 mph - N/A   Scattered Clouds
11:57 PM 68.0 °F - 51.1 °F 55% 30.00 in 10.0 mi NW 5.8 mph - N/A   Partly Cloudy